owner,sensor,date,latitude,longitude,vertical_datum,direction_of_sea_water_velocity,sea_water_speed,upward_sea_water_velocity,qcFlag 
COMPS,ioos:station:USF.COMPS:C12:1,2013-06-01T00:00:00Z,27.4980,-83.7220,4.0,106.2201936956,22.912005586591,-99999.0,'1111122,1111122,1199999999' 
COMPS,ioos:station:USF.COMPS:C12:1,2013-06-01T01:00:00Z,27.4980,-83.7220,4.0,105.62423458119,12.252754792291,-99999.0,'1111122,1111122,1199999999' 
COMPS,ioos:station:USF.COMPS:C12:1,2013-06-01T02:00:00Z,27.4980,-83.7220,4.0,117.74488899791,19.547378340842,-99999.0,'1111122,1111122,1199999999' 
COMPS,ioos:station:USF.COMPS:C12:1,2013-06-01T03:00:00Z,27.4980,-83.7220,4.0,136.93058744117,18.890473789717,-99999.0,'1111122,1111122,1199999999' 
COMPS,ioos:station:USF.COMPS:C12:1,2013-06-01T04:00:00Z,27.4980,-83.7220,4.0,149.47029410007,18.110770276275,-99999.0,'1111122,1111122,1199999999' 
COMPS,ioos:station:USF.COMPS:C12:1,2013-06-01T05:00:00Z,27.4980,-83.7220,4.0,155.68620351343,18.215652609775,-99999.0,'1111122,1111122,1199999999' 
COMPS,ioos:station:USF.COMPS:C12:1,2013-06-01T06:00:00Z,27.4980,-83.7220,4.0,186.08233669328,12.269066794178,-99999.0,'1111122,1111122,1199999999' 
COMPS,ioos:station:USF.COMPS:C12:1,2013-06-01T07:00:00Z,27.4980,-83.7220,4.0,156.32439736649,14.194717327231,-99999.0,'1111122,1111122,1199999999' 
COMPS,ioos:station:USF.COMPS:C12:1,2013-06-01T08:00:00Z,27.4980,-83.7220,4.0,172.54570118725,10.791200118615,-99999.0,'1111122,1111122,1199999999' 
COMPS,ioos:station:USF.COMPS:C12:1,2013-06-01T09:00:00Z,27.4980,-83.7220,4.0,195.05121999259,12.32274320109,-99999.0,'1111122,1111122,1199999999' 
COMPS,ioos:station:USF.COMPS:C12:1,2013-06-01T10:00:00Z,27.4980,-83.7220,4.0,234.46232220803,7.7420927403384,-99999.0,'1111122,1111122,1199999999' 
COMPS,ioos:station:USF.COMPS:C12:1,2013-06-01T11:00:00Z,27.4980,-83.7220,4.0,242.57125877832,8.9005617800227,-99999.0,'1111122,1111122,1199999999' 
COMPS,ioos:station:USF.COMPS:C12:1,2013-06-01T12:00:00Z,27.4980,-83.7220,4.0,245.70903759165,12.397580409096,-99999.0,'1111122,1111122,1199999999' 
COMPS,ioos:station:USF.COMPS:C12:1,2013-06-01T13:00:00Z,27.4980,-83.7220,4.0,247.69379494509,8.4308955633432,-99999.0,'1111122,1111122,1199999999' 
COMPS,ioos:station:USF.COMPS:C12:1,2013-06-01T14:00:00Z,27.4980,-83.7220,4.0,263.29016319224,15.405518491761,-99999.0,'1111122,1111122,1199999999' 
COMPS,ioos:station:USF.COMPS:C12:1,2013-06-01T15:00:00Z,27.4980,-83.7220,4.0,286.8937301792,14.108862463005,-99999.0,'1111122,1111122,1199999999' 
COMPS,ioos:station:USF.COMPS:C12:1,2013-06-01T16:00:00Z,27.4980,-83.7220,4.0,305.43990351911,13.624243098242,-99999.0,'1111122,1111122,1199999999' 
COMPS,ioos:station:USF.COMPS:C12:1,2013-06-01T17:00:00Z,27.4980,-83.7220,4.0,321.20344790169,13.087398519186,-99999.0,'1111122,1111122,1199999999' 
COMPS,ioos:station:USF.COMPS:C12:1,2013-06-01T18:00:00Z,27.4980,-83.7220,4.0,348.93881753841,13.551752654177,-99999.0,'1111122,1111122,1199999999' 
COMPS,ioos:station:USF.COMPS:C12:1,2013-06-01T19:00:00Z,27.4980,-83.7220,4.0,346.452061012,17.075128110793,-99999.0,'1111122,1111122,1199999999' 
COMPS,ioos:station:USF.COMPS:C12:1,2013-06-01T20:00:00Z,27.4980,-83.7220,4.0,7.5946433685914,19.672569735548,-99999.0,'1111122,1111122,1199999999' 
COMPS,ioos:station:USF.COMPS:C12:1,2013-06-01T21:00:00Z,27.4980,-83.7220,4.0,25.984370591185,26.476404589747,-99999.0,'1111122,1111122,1199999999' 
COMPS,ioos:station:USF.COMPS:C12:1,2013-06-01T22:00:00Z,27.4980,-83.7220,4.0,43.636072468397,23.765521244021,-99999.0,'1111122,1111122,1199999999' 
COMPS,ioos:station:USF.COMPS:C12:1,2013-06-01T23:00:00Z,27.4980,-83.7220,4.0,63.068456297841,20.974746720759,-99999.0,'1111122,1111122,1199999999' 
COMPS,ioos:station:USF.COMPS:C12:1,2013-06-02T00:00:00Z,27.4980,-83.7220,4.0,85.525103493754,23.070327262525,-99999.0,'1111122,1111122,1199999999' 
COMPS,ioos:station:USF.COMPS:C12:1,2013-06-02T01:00:00Z,27.4980,-83.7220,4.0,138.09405805892,10.480458005259,-99999.0,'1111122,1111122,1199999999' 
COMPS,ioos:station:USF.COMPS:C12:1,2013-06-02T02:00:00Z,27.4980,-83.7220,4.0,141.98561083442,18.023595645708,-99999.0,'1111122,1111122,1199999999' 
COMPS,ioos:station:USF.COMPS:C12:1,2013-06-02T03:00:00Z,27.4980,-83.7220,4.0,154.08111442895,23.793276361191,-99999.0,'1111122,1111122,1199999999' 
COMPS,ioos:station:USF.COMPS:C12:1,2013-06-02T04:00:00Z,27.4980,-83.7220,4.0,160.32864357422,21.982947936981,-99999.0,'1111122,1111122,1199999999' 
COMPS,ioos:station:USF.COMPS:C12:1,2013-06-02T05:00:00Z,27.4980,-83.7220,4.0,163.81962614301,20.09601950636,-99999.0,'1111122,1111122,1199999999' 
COMPS,ioos:station:USF.COMPS:C12:1,2013-06-02T06:00:00Z,27.4980,-83.7220,4.0,165.82766229987,20.42155723739,-99999.0,'1111122,1111122,1199999999' 
COMPS,ioos:station:USF.COMPS:C12:1,2013-06-02T07:00:00Z,27.4980,-83.7220,4.0,167.78428086587,19.849433241279,-99999.0,'1111122,1111122,1199999999' 
COMPS,ioos:station:USF.COMPS:C12:1,2013-06-02T08:00:00Z,27.4980,-83.7220,4.0,175.62225907126,20.961154548354,-99999.0,'1111122,1111122,1199999999' 
COMPS,ioos:station:USF.COMPS:C12:1,2013-06-02T09:00:00Z,27.4980,-83.7220,4.0,174.99202810796,19.47434209415,-99999.0,'1111122,1111122,1199999999' 
COMPS,ioos:station:USF.COMPS:C12:1,2013-06-02T10:00:00Z,27.4980,-83.7220,4.0,138.71528910543,5.4561891462815,-99999.0,'1111122,1111122,1199999999' 
COMPS,ioos:station:USF.COMPS:C12:1,2013-06-02T11:00:00Z,27.4980,-83.7220,4.0,166.57816493211,9.0470989825468,-99999.0,'1111122,1111122,1199999999' 
COMPS,ioos:station:USF.COMPS:C12:1,2013-06-02T12:00:00Z,27.4980,-83.7220,4.0,207.53424822745,23.795167576632,-99999.0,'1111122,1111122,1199999999' 
COMPS,ioos:station:USF.COMPS:C12:1,2013-06-02T13:00:00Z,27.4980,-83.7220,4.0,222.87890360334,24.836465126906,-99999.0,'1111122,1111122,1199999999' 
COMPS,ioos:station:USF.COMPS:C12:1,2013-06-02T14:00:00Z,27.4980,-83.7220,4.0,221.74588385831,21.176638071233,-99999.0,'1111122,1111122,1199999999' 
COMPS,ioos:station:USF.COMPS:C12:1,2013-06-02T15:00:00Z,27.4980,-83.7220,4.0,232.82233926482,22.340322289528,-99999.0,'1111122,1111122,1199999999' 
COMPS,ioos:station:USF.COMPS:C12:1,2013-06-02T16:00:00Z,27.4980,-83.7220,4.0,243.98762408787,13.908989898623,-99999.0,'1111122,1111122,1199999999' 
COMPS,ioos:station:USF.COMPS:C12:1,2013-06-02T17:00:00Z,27.4980,-83.7220,4.0,255.10981763267,17.901117283566,-99999.0,'1111122,1111122,1199999999' 
COMPS,ioos:station:USF.COMPS:C12:1,2013-06-02T18:00:00Z,27.4980,-83.7220,4.0,290.87901688056,10.381714694596,-99999.0,'1111122,1111122,1199999999' 
COMPS,ioos:station:USF.COMPS:C12:1,2013-06-02T20:00:00Z,27.4980,-83.7220,4.0,323.53076560995,20.020489504505,-99999.0,'1111122,1111122,1199999999' 
COMPS,ioos:station:USF.COMPS:C12:1,2013-06-02T21:00:00Z,27.4980,-83.7220,4.0,354.73415968822,21.791970998512,-99999.0,'1111122,1111122,1199999999' 
COMPS,ioos:station:USF.COMPS:C12:1,2013-06-02T22:00:00Z,27.4980,-83.7220,4.0,15.140983835077,17.611359970201,-99999.0,'1111122,1111122,1199999999' 
COMPS,ioos:station:USF.COMPS:C12:1,2013-06-02T23:00:00Z,27.4980,-83.7220,4.0,44.292680631456,22.912005586591,-99999.0,'1111122,1111122,1199999999' 
COMPS,ioos:station:USF.COMPS:C12:1,2013-06-03T00:00:00Z,27.4980,-83.7220,4.0,57.547823898136,23.108656386731,-99999.0,'1111122,1111122,1199999999' 
COMPS,ioos:station:USF.COMPS:C12:1,2013-06-03T01:00:00Z,27.4980,-83.7220,4.0,78.530469667133,14.081193131266,-99999.0,'1111122,1111122,1199999999' 
COMPS,ioos:station:USF.COMPS:C12:1,2013-06-03T03:00:00Z,27.4980,-83.7220,4.0,94.545335308749,23.975404063331,-99999.0,'1111122,1111122,1199999999' 
COMPS,ioos:station:USF.COMPS:C12:1,2013-06-03T04:00:00Z,27.4980,-83.7220,4.0,117.18111108548,24.955961211703,-99999.0,'1111122,1111122,1199999999' 
COMPS,ioos:station:USF.COMPS:C12:1,2013-06-03T05:00:00Z,27.4980,-83.7220,4.0,143.35217790685,25.800193797722,-99999.0,'1111122,1111122,1199999999' 
COMPS,ioos:station:USF.COMPS:C12:1,2013-06-03T08:00:00Z,27.4980,-83.7220,4.0,159.36245301531,32.912003889159,-99999.0,'1111122,1111122,1199999999' 
COMPS,ioos:station:USF.COMPS:C12:1,2013-06-03T09:00:00Z,27.4980,-83.7220,4.0,163.04259088873,31.886360720534,-99999.0,'1111122,1111122,1199999999' 
COMPS,ioos:station:USF.COMPS:C12:1,2013-06-03T10:00:00Z,27.4980,-83.7220,4.0,192.13682445529,19.025246384738,-99999.0,'1111122,1111122,1199999999' 
COMPS,ioos:station:USF.COMPS:C12:1,2013-06-03T11:00:00Z,27.4980,-83.7220,4.0,174.9738895843,30.818500936937,-99999.0,'1111122,1111122,1199999999' 
COMPS,ioos:station:USF.COMPS:C12:1,2013-06-03T13:00:00Z,27.4980,-83.7220,4.0,192.56023709685,19.773214205081,-99999.0,'1111122,1111122,1199999999' 
COMPS,ioos:station:USF.COMPS:C12:1,2013-06-03T14:00:00Z,27.4980,-83.7220,4.0,224.7561896439,16.617159805454,-99999.0,'1111122,1111122,1199999999' 
COMPS,ioos:station:USF.COMPS:C12:1,2013-06-03T15:00:00Z,27.4980,-83.7220,4.0,240.03325812939,12.812884140583,-99999.0,'1111122,1111122,1199999999' 
COMPS,ioos:station:USF.COMPS:C12:1,2013-06-03T16:00:00Z,27.4980,-83.7220,4.0,232.38063635884,13.761177275219,-99999.0,'1111122,1111122,1199999999' 
COMPS,ioos:station:USF.COMPS:C12:1,2013-06-03T17:00:00Z,27.4980,-83.7220,4.0,228.30186567443,7.3661387442812,-99999.0,'1111122,1111122,1199999999' 
COMPS,ioos:station:USF.COMPS:C12:1,2013-06-03T18:00:00Z,27.4980,-83.7220,4.0,268.51213247117,15.405193929321,-99999.0,'1111122,1111122,1199999999' 
COMPS,ioos:station:USF.COMPS:C12:1,2013-06-03T19:00:00Z,27.4980,-83.7220,4.0,290.78111165825,20.856893344887,-99999.0,'1111122,1111122,1199999999' 
COMPS,ioos:station:USF.COMPS:C12:1,2013-06-03T20:00:00Z,27.4980,-83.7220,4.0,324.6145692709,13.124404748407,-99999.0,'1111122,1111122,1199999999' 
COMPS,ioos:station:USF.COMPS:C12:1,2013-06-03T21:00:00Z,27.4980,-83.7220,4.0,324.74364128704,14.205632685664,-99999.0,'1111122,1111122,1199999999' 
COMPS,ioos:station:USF.COMPS:C12:1,2013-06-03T22:00:00Z,27.4980,-83.7220,4.0,10.22900828736,13.514806694881,-99999.0,'1111122,1111122,1199999999' 
COMPS,ioos:station:USF.COMPS:C12:1,2013-06-03T23:00:00Z,27.4980,-83.7220,4.0,13.288654134762,20.447493733952,-99999.0,'1111122,1111122,1199999999' 
COMPS,ioos:station:USF.COMPS:C12:1,2013-06-04T00:00:00Z,27.4980,-83.7220,4.0,32.602733698501,23.384824138744,-99999.0,'1111122,1111122,1199999999' 
COMPS,ioos:station:USF.COMPS:C12:1,2013-06-04T01:00:00Z,27.4980,-83.7220,4.0,51.044092162241,24.176021178019,-99999.0,'1111122,1111122,1199999999' 
COMPS,ioos:station:USF.COMPS:C12:1,2013-06-04T02:00:00Z,27.4980,-83.7220,4.0,48.421219276429,26.0679880313,-99999.0,'1111122,1111122,1199999999' 
COMPS,ioos:station:USF.COMPS:C12:1,2013-06-04T03:00:00Z,27.4980,-83.7220,4.0,78.26394044414,29.006378608851,-99999.0,'1111122,1111122,1199999999' 
COMPS,ioos:station:USF.COMPS:C12:1,2013-06-04T04:00:00Z,27.4980,-83.7220,4.0,89.175657179155,27.802877548916,-99999.0,'1111122,1111122,1199999999' 
COMPS,ioos:station:USF.COMPS:C12:1,2013-06-04T05:00:00Z,27.4980,-83.7220,4.0,103.58296352984,30.657462386832,-99999.0,'1111122,1111122,1199999999' 
COMPS,ioos:station:USF.COMPS:C12:1,2013-06-04T06:00:00Z,27.4980,-83.7220,4.0,117.00130502698,35.241452864489,-99999.0,'1111122,1111122,1199999999' 
COMPS,ioos:station:USF.COMPS:C12:1,2013-06-04T07:00:00Z,27.4980,-83.7220,4.0,122.50752442264,36.285120917533,-99999.0,'1111122,1111122,1199999999' 
COMPS,ioos:station:USF.COMPS:C12:1,2013-06-04T08:00:00Z,27.4980,-83.7220,4.0,134.7218673327,29.133142638583,-99999.0,'1111122,1111122,1199999999' 
COMPS,ioos:station:USF.COMPS:C12:1,2013-06-04T09:00:00Z,27.4980,-83.7220,4.0,132.41049815276,28.171616922001,-99999.0,'1111122,1111122,1199999999' 
COMPS,ioos:station:USF.COMPS:C12:1,2013-06-04T10:00:00Z,27.4980,-83.7220,4.0,134.80036394548,20.294087809015,-99999.0,'1111122,1111122,1199999999' 
COMPS,ioos:station:USF.COMPS:C12:1,2013-06-04T11:00:00Z,27.4980,-83.7220,4.0,161.25024236969,23.021728866443,-99999.0,'1111122,1111122,1199999999' 
COMPS,ioos:station:USF.COMPS:C12:1,2013-06-04T13:00:00Z,27.4980,-83.7220,4.0,177.07009535939,25.433245958784,-99999.0,'1111122,1111122,1199999999' 
COMPS,ioos:station:USF.COMPS:C12:1,2013-06-04T14:00:00Z,27.4980,-83.7220,4.0,187.1250163489,23.380547470066,-99999.0,'1111122,1111122,1199999999' 
COMPS,ioos:station:USF.COMPS:C12:1,2013-06-04T15:00:00Z,27.4980,-83.7220,4.0,214.19560540246,9.4302704096966,-99999.0,'1111122,1111122,1199999999' 
COMPS,ioos:station:USF.COMPS:C12:1,2013-06-04T16:00:00Z,27.4980,-83.7220,4.0,231.80558044186,17.304623659589,-99999.0,'1111122,1111122,1199999999' 
COMPS,ioos:station:USF.COMPS:C12:1,2013-06-04T17:00:00Z,27.4980,-83.7220,4.0,224.43273359014,21.426385602803,-99999.0,'1111122,1111122,1199999999' 
COMPS,ioos:station:USF.COMPS:C12:1,2013-06-04T18:00:00Z,27.4980,-83.7220,4.0,228.01278750418,13.453624047074,-99999.0,'1111122,1111122,1199999999' 
COMPS,ioos:station:USF.COMPS:C12:1,2013-06-04T19:00:00Z,27.4980,-83.7220,4.0,277.95752522692,9.3904206508548,-99999.0,'1111122,1111122,1199999999' 
COMPS,ioos:station:USF.COMPS:C12:1,2013-06-04T20:00:00Z,27.4980,-83.7220,4.0,321.17992424918,11.166467659918,-99999.0,'1111122,1111122,1199999999' 
COMPS,ioos:station:USF.COMPS:C12:1,2013-06-04T21:00:00Z,27.4980,-83.7220,4.0,312.55295135768,8.2807004534641,-99999.0,'1111122,1111122,1199999999' 
COMPS,ioos:station:USF.COMPS:C12:1,2013-06-04T22:00:00Z,27.4980,-83.7220,4.0,349.69515353123,14.534441853749,-99999.0,'1111122,1111122,1199999999' 
COMPS,ioos:station:USF.COMPS:C12:1,2013-06-04T23:00:00Z,27.4980,-83.7220,4.0,16.620756913892,20.976415327696,-99999.0,'1111122,1111122,1199999999' 
COMPS,ioos:station:USF.COMPS:C12:1,2013-06-05T00:00:00Z,27.4980,-83.7220,4.0,16.468756253655,28.572189275588,-99999.0,'1111122,1111122,1199999999' 
COMPS,ioos:station:USF.COMPS:C12:1,2013-06-05T01:00:00Z,27.4980,-83.7220,4.0,28.403304993396,26.488676826146,-99999.0,'1111122,1111122,1199999999' 
COMPS,ioos:station:USF.COMPS:C12:1,2013-06-05T02:00:00Z,27.4980,-83.7220,4.0,38.814745084418,28.876634152893,-99999.0,'1111122,1111122,1199999999' 
COMPS,ioos:station:USF.COMPS:C12:1,2013-06-05T03:00:00Z,27.4980,-83.7220,4.0,56.63845971943,24.185326129701,-99999.0,'1111122,1111122,1199999999' 
COMPS,ioos:station:USF.COMPS:C12:1,2013-06-05T04:00:00Z,27.4980,-83.7220,4.0,55.948221499621,21.966565503055,-99999.0,'1111122,1111122,1199999999' 
COMPS,ioos:station:USF.COMPS:C12:1,2013-06-05T05:00:00Z,27.4980,-83.7220,4.0,64.505773277709,23.930106560565,-99999.0,'1111122,1111122,1199999999' 
COMPS,ioos:station:USF.COMPS:C12:1,2013-06-05T06:00:00Z,27.4980,-83.7220,4.0,82.234833981575,26.644323973409,-99999.0,'1111122,1111122,1199999999' 
COMPS,ioos:station:USF.COMPS:C12:1,2013-06-05T07:00:00Z,27.4980,-83.7220,4.0,90.239729896081,23.900209204105,-99999.0,'1111122,1111122,1199999999' 
COMPS,ioos:station:USF.COMPS:C12:1,2013-06-05T08:00:00Z,27.4980,-83.7220,4.0,97.155541534886,23.281322986463,-99999.0,'1111122,1111122,1199999999' 
COMPS,ioos:station:USF.COMPS:C12:1,2013-06-05T09:00:00Z,27.4980,-83.7220,4.0,100.24127869213,24.185326129701,-99999.0,'1111122,1111122,1199999999' 
COMPS,ioos:station:USF.COMPS:C12:1,2013-06-05T10:00:00Z,27.4980,-83.7220,4.0,107.57125877832,25.174590364095,-99999.0,'1111122,1111122,1199999999' 
COMPS,ioos:station:USF.COMPS:C12:1,2013-06-05T11:00:00Z,27.4980,-83.7220,4.0,108.2054609466,23.685649663879,-99999.0,'1111122,1111122,1199999999' 
COMPS,ioos:station:USF.COMPS:C12:1,2013-06-05T12:00:00Z,27.4980,-83.7220,4.0,111.32439736649,20.074361758223,-99999.0,'1111122,1111122,1199999999' 
COMPS,ioos:station:USF.COMPS:C12:1,2013-06-05T13:00:00Z,27.4980,-83.7220,4.0,135.45471886169,17.819652072922,-99999.0,'1111122,1111122,1199999999' 
COMPS,ioos:station:USF.COMPS:C12:1,2013-06-05T14:00:00Z,27.4980,-83.7220,4.0,124.43000877917,15.033628969746,-99999.0,'1111122,1111122,1199999999' 
COMPS,ioos:station:USF.COMPS:C12:1,2013-06-05T15:00:00Z,27.4980,-83.7220,4.0,184.19766835716,10.929318368499,-99999.0,'1111122,1111122,1199999999' 
COMPS,ioos:station:USF.COMPS:C12:1,2013-06-05T16:00:00Z,27.4980,-83.7220,4.0,217.63525375502,10.480935072788,-99999.0,'1111122,1111122,1199999999' 
COMPS,ioos:station:USF.COMPS:C12:1,2013-06-05T17:00:00Z,27.4980,-83.7220,4.0,260.10607933026,8.729833904491,-99999.0,'1111122,1111122,1199999999' 
COMPS,ioos:station:USF.COMPS:C12:1,2013-06-05T18:00:00Z,27.4980,-83.7220,4.0,263.7227015104,10.060318086423,-99999.0,'1111122,1111122,1199999999' 
COMPS,ioos:station:USF.COMPS:C12:1,2013-06-05T19:00:00Z,27.4980,-83.7220,4.0,273.38172732428,22.038375620721,-99999.0,'1111122,1111122,1199999999' 
COMPS,ioos:station:USF.COMPS:C12:1,2013-06-05T20:00:00Z,27.4980,-83.7220,4.0,268.64680804622,12.703542812932,-99999.0,'1111122,1111122,1199999999' 
COMPS,ioos:station:USF.COMPS:C12:1,2013-06-05T21:00:00Z,27.4980,-83.7220,4.0,301.85513238245,24.252834885844,-99999.0,'1111122,1111122,1199999999' 
COMPS,ioos:station:USF.COMPS:C12:1,2013-06-05T22:00:00Z,27.4980,-83.7220,4.0,316.83074864803,30.9870940877,-99999.0,'1111122,1111122,1199999999' 
COMPS,ioos:station:USF.COMPS:C12:1,2013-06-05T23:00:00Z,27.4980,-83.7220,4.0,322.70499719884,24.26066775668,-99999.0,'1111122,1111122,1199999999' 
COMPS,ioos:station:USF.COMPS:C12:1,2013-06-06T00:00:00Z,27.4980,-83.7220,4.0,336.94040916396,27.062335449846,-99999.0,'1111122,1111122,1199999999' 
COMPS,ioos:station:USF.COMPS:C12:1,2013-06-06T01:00:00Z,27.4980,-83.7220,4.0,340.14478563068,34.447786576208,-99999.0,'1111122,1111122,1199999999' 
COMPS,ioos:station:USF.COMPS:C12:1,2013-06-06T02:00:00Z,27.4980,-83.7220,4.0,357.6547258801,29.324563082849,-99999.0,'1111122,1111122,1199999999' 
COMPS,ioos:station:USF.COMPS:C12:1,2013-06-06T03:00:00Z,27.4980,-83.7220,4.0,339.12960654726,31.999531246567,-99999.0,'1111122,1111122,1199999999' 
COMPS,ioos:station:USF.COMPS:C12:1,2013-06-06T04:00:00Z,27.4980,-83.7220,4.0,349.2285458398,20.867678356731,-99999.0,'1111122,1111122,1199999999' 
COMPS,ioos:station:USF.COMPS:C12:1,2013-06-06T05:00:00Z,27.4980,-83.7220,4.0,354.7058569926,26.010959228756,-99999.0,'1111122,1111122,1199999999' 
COMPS,ioos:station:USF.COMPS:C12:1,2013-06-06T06:00:00Z,27.4980,-83.7220,4.0,334.07154239889,20.125854019147,-99999.0,'1111122,1111122,1199999999' 
COMPS,ioos:station:USF.COMPS:C12:1,2013-06-06T07:00:00Z,27.4980,-83.7220,4.0,331.32685351057,29.178073959739,-99999.0,'1111122,1111122,1199999999' 
COMPS,ioos:station:USF.COMPS:C12:1,2013-06-06T08:00:00Z,27.4980,-83.7220,4.0,336.73885953357,24.05535283466,-99999.0,'1111122,1111122,1199999999' 
COMPS,ioos:station:USF.COMPS:C12:1,2013-06-06T09:00:00Z,27.4980,-83.7220,4.0,341.10878043938,27.797302027355,-99999.0,'1111122,1111122,1199999999' 
COMPS,ioos:station:USF.COMPS:C12:1,2013-06-06T10:00:00Z,27.4980,-83.7220,4.0,1.1102443432205,25.80484450641,-99999.0,'1111122,1111122,1199999999' 
COMPS,ioos:station:USF.COMPS:C12:1,2013-06-06T11:00:00Z,27.4980,-83.7220,4.0,353.02900419277,23.070543990119,-99999.0,'1111122,1111122,1199999999' 
COMPS,ioos:station:USF.COMPS:C12:1,2013-06-06T12:00:00Z,27.4980,-83.7220,4.0,354.43873094327,38.179706651571,-99999.0,'1111122,1111122,1199999999' 
 
DISCLAIMER: The Gulf of Mexico Coastal and Ocean Observing (GCOOS) Data Portal aggregates data from the regional data providers for the convenience of all data users. Data published on this website should not be used for navigation or certain other uses as we cannot guarantee data accuracy or availability. The data and delivery services are provided 'as is' without warranty of any kind. Data Source: Gulf of Mexico Coastal Ocean Observing System Data Portal (http://data.gcoos.org/) 
